[[{"header":{"parameterUnit":"m.s-1","parameterCategory":1,"la1":30.2991,"la2":30.254,"lo1":-89.0895,"lo2":-89.0444,"dy":0.0017,"dx":0.0017,"nx":28,"ny":28,"refTime":"2025-06-21T03:00:00:Z","depth":0,"parameterNumber":2,"parameterNumberName":"U-component_of_WINDS"},"data":[0,0,0,0,0,0,0,0,0,0,0,0,0,0,0,0,0,0,0,0,0,0,0,0,0,0,0,0,0,0,0,0,0,0,0,0,0,0,0,0,0,0,0,0,0,0,0,0,0,0,0,0,0,0,0,0,0,0,-2.112,-2.1121,0,-2.1205,-2.1206,-2.1206,-2.1239,-2.1238,-2.1238,-2.1238,-2.132,-2.1322,-2.1325,0,0,0,0,0,0,0,0,0,0,0,0,0,-2.0985,-2.0987,-2.112,-2.1121,-2.1122,-2.1204,-2.1206,-2.1207,-2.1239,-2.1238,-2.1238,-2.1238,-2.1319,-2.1322,-2.1325,0,0,0,0,0,0,0,0,0,0,0,0,0,-2.1053,-2.0988,-2.112,-2.1148,-2.1152,-2.1204,-2.1206,-2.1207,-2.1239,-2.1238,-2.1238,-2.1238,-2.1318,-2.1322,-2.1325,-2.1355,0,0,-2.1336,-2.1338,0,0,0,0,0,0,0,0,-2.105,-2.1058,-2.1143,-2.1146,-2.115,-2.1211,-2.1188,-2.1256,-2.1239,-2.1205,-2.1238,-2.1237,-2.1284,-2.129,-2.1307,-2.1358,-2.1362,-2.1337,-2.1339,-2.134,-2.1341,0,0,0,0,0,0,0,-2.1045,-2.1055,-2.1153,-2.1144,-2.1149,-2.1156,-2.1165,-2.1201,-2.1245,-2.1208,-2.1211,-2.1221,-2.1286,-2.1303,-2.1309,-2.1363,-2.1337,-2.134,-2.1342,-2.1343,-2.1445,-2.1446,0,0,0,0,0,0,-2.1036,-2.1051,-2.1151,-2.1156,-2.1098,-2.1159,-2.1169,-2.1192,-2.1245,-2.1253,-2.1221,-2.1222,-2.1297,-2.1304,-2.1312,-2.1351,-2.134,-2.1344,-2.1346,-2.1445,-2.1446,-2.1446,0,0,0,0,0,0,-2.1033,-2.1044,-2.1147,-2.1104,-2.1118,-2.1161,-2.1186,-2.1193,-2.1211,-2.1255,-2.1262,-2.1231,-2.1297,-2.1307,-2.1344,-2.1354,-2.1345,-2.1349,-2.1444,-2.1445,-2.1446,-2.1428,0,0,0,0,0,0,-2.1029,-2.1043,-2.1055,-2.1104,-2.112,-2.1179,-2.1187,-2.1195,-2.1218,-2.122,-2.1266,-2.1273,-2.1297,-2.1339,-2.1348,-2.1359,-2.1351,-2.1444,-2.1445,-2.1446,-2.1428,-2.1428,-2.1428,0,0,0,0,0,-2.1024,-2.1045,-2.1055,-2.1067,-2.1136,-2.118,-2.1189,-2.1217,-2.1218,-2.123,-2.1259,-2.1272,-2.1352,-2.1343,-2.1353,-2.1365,-2.1443,-2.1444,-2.1446,-2.1428,-2.1428,-2.1428,0,0,0,0,0,0,-2.0994,-2.1052,-2.1064,-2.1102,-2.1136,-2.1185,-2.1201,-2.1216,-2.1249,-2.125,-2.1283,-2.1293,-2.1328,-2.1351,-2.1339,-2.1397,-2.1398,-2.1402,-2.1381,-2.1382,-2.1382,-2.1375,-2.1354,0,0,0,0,0,-2.0992,-2.1024,-2.1073,-2.1102,-2.1118,-2.1157,-2.1177,-2.1197,-2.1232,-2.1246,-2.1277,-2.131,-2.1343,-2.1364,-2.1396,-2.1432,-2.1442,-2.1445,-2.1445,-2.1445,-2.1447,-2.1469,-2.1471,-2.145,-2.145,-2.145,0,0,-2.0988,-2.1024,-2.1041,-2.1097,-2.1125,-2.1157,-2.1168,-2.1201,-2.1224,-2.125,-2.1289,-2.1313,-2.1352,-2.1389,-2.1407,-2.1409,-2.1456,-2.1447,-2.1446,-2.1449,-2.1471,-2.1472,-2.1474,-2.1451,-2.1451,-2.1451,0,0,-2.0997,-2.1027,-2.1055,-2.1084,-2.1128,-2.1154,-2.1161,-2.1208,-2.1226,-2.1265,-2.1286,-2.1314,-2.137,-2.1398,-2.1419,-2.1441,-2.1454,-2.1451,-2.1451,-2.1472,-2.1473,-2.1475,-2.1483,-2.1486,-2.1453,-2.1453,-2.1453,0,-2.0985,-2.1035,-2.1067,-2.11,-2.1123,-2.1151,-2.118,-2.1206,-2.1257,-2.1273,-2.1275,-2.1347,-2.1375,-2.1419,-2.1425,-2.1441,-2.145,-2.1445,-2.1471,-2.1473,-2.1475,-2.1483,-2.1486,-2.1452,-2.1452,-2.1452,-2.1452,0,-2.1019,-2.1053,-2.1071,-2.1122,-2.1148,-2.1178,-2.1215,-2.1237,-2.1255,-2.1281,-2.1321,-2.1357,-2.1398,-2.141,-2.1427,-2.1457,-2.1457,-2.1464,-2.1466,-2.1475,-2.1484,-2.1487,-2.1451,-2.1451,-2.1452,-2.1452,0,0,-2.1009,-2.1081,-2.1086,-2.1111,-2.1162,-2.1189,-2.122,-2.1262,-2.1281,-2.1316,-2.1343,-2.1391,-2.1399,-2.1423,-2.1444,-2.1462,-2.1478,-2.1467,-2.1469,-2.1468,-2.1515,-2.1509,-2.1512,-2.1488,-2.1489,-2.1489,-2.1512,0,-2.1025,-2.1084,-2.1116,-2.1161,-2.1193,-2.1221,-2.1249,-2.1283,-2.1309,-2.1339,-2.1367,-2.1401,-2.1408,-2.1423,-2.1443,-2.1472,-2.1488,-2.1471,-2.1513,-2.1514,-2.1502,-2.1516,-2.1509,-2.1528,-2.1515,-2.1515,-2.1516,0,-2.1051,-2.1088,-2.1137,-2.1187,-2.1201,-2.1226,-2.1267,-2.1296,-2.1336,-2.1353,-2.1382,-2.1403,-2.1437,-2.1438,-2.1486,-2.1473,-2.1493,-2.151,-2.1512,-2.1516,-2.1515,-2.152,-2.1535,-2.1538,-2.1521,-2.1521,-2.152,0,-2.1039,-2.1101,-2.1139,-2.1159,-2.1217,-2.1234,-2.1259,-2.1299,-2.1323,-2.1359,-2.1375,-2.1414,-2.1435,-2.1465,-2.1496,-2.1493,-2.1541,-2.1544,-2.1556,-2.1555,-2.1564,-2.1562,-2.1581,-2.1577,-2.1577,-2.1577,-2.1577,0,-2.1053,-2.1082,-2.1135,-2.1158,-2.1192,-2.1228,-2.126,-2.1287,-2.1322,-2.1351,-2.1377,-2.1403,-2.1443,-2.1474,-2.1499,-2.1535,-2.1544,-2.1559,-2.1565,-2.1556,-2.1554,-2.1569,-2.1568,-2.1578,-2.1578,-2.1577,-2.1577,0,-2.1045,-2.1082,-2.1125,-2.1178,-2.1192,-2.1214,-2.1259,-2.1283,-2.1311,-2.1347,-2.1357,-2.14,-2.1439,-2.1473,-2.1523,-2.154,-2.1577,-2.1584,-2.1564,-2.1567,-2.1577,-2.1575,-2.1605,-2.1611,-2.1603,-2.1603,-2.1603,0,-2.1051,-2.1075,-2.1131,-2.1153,-2.1178,-2.1212,-2.1237,-2.1274,-2.1299,-2.1347,-2.1365,-2.1406,-2.144,-2.15,-2.1535,-2.1574,-2.1583,-2.1591,-2.1588,-2.158,-2.1583,-2.1581,-2.1583,-2.159,-2.159,-2.159,-2.159,0,-2.1058,-2.1076,-2.1112,-2.1154,-2.1184,-2.1219,-2.1254,-2.127,-2.1314,-2.134,-2.1381,-2.1408,-2.146,-2.15,-2.1544,-2.1569,-2.1586,-2.159,-2.1595,-2.1586,-2.1573,-2.158,-2.1562,-2.1589,-2.1589,-2.1589,-2.1589,-2.1589,-2.1058,-2.108,-2.1124,-2.1163,-2.1194,-2.1228,-2.1253,-2.1285,-2.1319,-2.1366,-2.1385,-2.1426,-2.1467,-2.1528,-2.1553,-2.1585,-2.1588,-2.1595,-2.1597,-2.1598,-2.1597,-2.1569,-2.1593,-2.1593,-2.1593,-2.1593,-2.1593,0,-2.1067,-2.1097,-2.1132,-2.1183,-2.1213,-2.123,-2.127,-2.1295,-2.1331,-2.1368,-2.1402,-2.1449,-2.1488,-2.1528,-2.1569,-2.1588,-2.1597,-2.1597,-2.1596,-2.1601,-2.1591,-2.1583,-2.1589,-2.1589,-2.1589,-2.1589,-2.1589,-2.1589,-2.1075,-2.1114,-2.1137,-2.1192,-2.1222,-2.1264,-2.1285,-2.1316,-2.1346,-2.1398,-2.1431,-2.1457,-2.1496,-2.1541,-2.1578,-2.1588,-2.1602,-2.16,-2.1613,-2.1602,-2.1602,-2.1602,-2.1594,-2.1603,-2.1603,-2.162,-2.162,-2.1621]},{"header":{"parameterUnit":"m.s-1","parameterCategory":1,"la1":30.2991,"la2":30.254,"lo1":-89.0895,"lo2":-89.0444,"dy":0.0017,"dx":0.0017,"nx":28,"ny":28,"refTime":"2025-06-21T03:00:00:Z","depth":0,"parameterNumber":3,"parameterNumberName":"V-component_of_WINDS"},"data":[0,0,0,0,0,0,0,0,0,0,0,0,0,0,0,0,0,0,0,0,0,0,0,0,0,0,0,0,0,0,0,0,0,0,0,0,0,0,0,0,0,0,0,0,0,0,0,0,0,0,0,0,0,0,0,0,0,0,-1.4054,-1.4056,0,-1.4216,-1.4218,-1.4219,-1.4278,-1.4277,-1.4277,-1.4276,-1.4436,-1.4441,-1.4445,0,0,0,0,0,0,0,0,0,0,0,0,0,-1.379,-1.3794,-1.4054,-1.4056,-1.4058,-1.4215,-1.4218,-1.422,-1.4278,-1.4277,-1.4276,-1.4276,-1.4434,-1.444,-1.4446,0,0,0,0,0,0,0,0,0,0,0,0,0,-1.3923,-1.3796,-1.4054,-1.4106,-1.4112,-1.4215,-1.4218,-1.422,-1.4278,-1.4277,-1.4276,-1.4276,-1.4433,-1.4439,-1.4447,-1.4507,0,0,-1.4468,-1.4471,0,0,0,0,0,0,0,0,-1.3915,-1.3933,-1.4096,-1.4103,-1.411,-1.4226,-1.4183,-1.4316,-1.4278,-1.4215,-1.4276,-1.4275,-1.4366,-1.4379,-1.4411,-1.4515,-1.4521,-1.4469,-1.4473,-1.4476,-1.4478,0,0,0,0,0,0,0,-1.3906,-1.3926,-1.4118,-1.4099,-1.4107,-1.412,-1.4138,-1.4209,-1.4293,-1.422,-1.4225,-1.4244,-1.437,-1.4404,-1.4415,-1.4524,-1.4469,-1.4475,-1.448,-1.4482,-1.4685,-1.4686,0,0,0,0,0,0,-1.3889,-1.3918,-1.4113,-1.4123,-1.4009,-1.4125,-1.4145,-1.4189,-1.4293,-1.4308,-1.4244,-1.4246,-1.4392,-1.4407,-1.4421,-1.4499,-1.4476,-1.4483,-1.4487,-1.4683,-1.4685,-1.4686,0,0,0,0,0,0,-1.3883,-1.3906,-1.4106,-1.4022,-1.4048,-1.4131,-1.4179,-1.4193,-1.4227,-1.4311,-1.4325,-1.4264,-1.4392,-1.4411,-1.4486,-1.4505,-1.4486,-1.4493,-1.4682,-1.4684,-1.4685,-1.4654,0,0,0,0,0,0,-1.3875,-1.3903,-1.3928,-1.4022,-1.4053,-1.417,-1.4181,-1.4197,-1.424,-1.4244,-1.4333,-1.4347,-1.4393,-1.4475,-1.4493,-1.4514,-1.4498,-1.4681,-1.4683,-1.4685,-1.4654,-1.4654,-1.4655,0,0,0,0,0,-1.3865,-1.3912,-1.3929,-1.3953,-1.4086,-1.4171,-1.4188,-1.4242,-1.4241,-1.4266,-1.432,-1.4344,-1.45,-1.4482,-1.4503,-1.4527,-1.468,-1.4682,-1.4685,-1.4653,-1.4654,-1.4655,0,0,0,0,0,0,-1.3817,-1.3925,-1.3946,-1.4024,-1.4088,-1.4181,-1.4214,-1.4241,-1.4305,-1.4305,-1.4367,-1.4387,-1.4456,-1.4499,-1.4477,-1.459,-1.4591,-1.4598,-1.456,-1.4562,-1.4562,-1.455,-1.4504,0,0,0,0,0,-1.3816,-1.3877,-1.3968,-1.4028,-1.4059,-1.4131,-1.417,-1.4206,-1.4274,-1.43,-1.4359,-1.4422,-1.4486,-1.4526,-1.4589,-1.466,-1.468,-1.4687,-1.4687,-1.4687,-1.4692,-1.4732,-1.4736,-1.4694,-1.4694,-1.4694,0,0,-1.3813,-1.388,-1.3915,-1.402,-1.4074,-1.4135,-1.4153,-1.4217,-1.4262,-1.4309,-1.4384,-1.4429,-1.4504,-1.4577,-1.4612,-1.4615,-1.4708,-1.469,-1.469,-1.4695,-1.4735,-1.4739,-1.4742,-1.4696,-1.4695,-1.4695,0,0,-1.3839,-1.3897,-1.3953,-1.4007,-1.4089,-1.4136,-1.4149,-1.4238,-1.4271,-1.4347,-1.4384,-1.4437,-1.4545,-1.4596,-1.4637,-1.4682,-1.4706,-1.47,-1.4704,-1.4742,-1.4745,-1.4748,-1.4764,-1.4769,-1.4705,-1.4705,-1.4705,0,-1.3825,-1.3921,-1.3978,-1.4041,-1.4085,-1.4133,-1.419,-1.4238,-1.4335,-1.4364,-1.4366,-1.4502,-1.4556,-1.4641,-1.4652,-1.4683,-1.4699,-1.4691,-1.474,-1.4744,-1.4748,-1.4763,-1.4769,-1.4704,-1.4704,-1.4704,-1.4704,0,-1.3899,-1.3964,-1.3999,-1.4094,-1.4143,-1.4202,-1.4267,-1.4309,-1.434,-1.4386,-1.4462,-1.4528,-1.4605,-1.4628,-1.4658,-1.4718,-1.4717,-1.4729,-1.4731,-1.475,-1.4765,-1.4772,-1.4702,-1.4703,-1.4703,-1.4703,0,0,-1.39,-1.4026,-1.4038,-1.4081,-1.4175,-1.4225,-1.4285,-1.4362,-1.4396,-1.4461,-1.4512,-1.4602,-1.4614,-1.466,-1.4696,-1.473,-1.4761,-1.4738,-1.474,-1.4739,-1.4829,-1.4819,-1.4825,-1.4777,-1.4778,-1.478,-1.4822,0,-1.3938,-1.4051,-1.4104,-1.4192,-1.4252,-1.4297,-1.435,-1.4411,-1.4456,-1.4512,-1.456,-1.4623,-1.4634,-1.4662,-1.4697,-1.4749,-1.4779,-1.4747,-1.4823,-1.4826,-1.4804,-1.4834,-1.4824,-1.4861,-1.4829,-1.483,-1.4831,0,-1.3999,-1.4065,-1.4159,-1.4246,-1.4273,-1.4319,-1.4393,-1.4447,-1.4517,-1.4547,-1.4598,-1.4633,-1.4696,-1.4694,-1.4781,-1.4757,-1.4792,-1.4822,-1.4824,-1.4833,-1.4829,-1.4843,-1.4874,-1.488,-1.4841,-1.484,-1.4839,0,-1.3989,-1.4102,-1.4173,-1.4209,-1.4311,-1.4342,-1.4386,-1.4456,-1.4498,-1.4563,-1.4591,-1.466,-1.4698,-1.4751,-1.4803,-1.4797,-1.4884,-1.4887,-1.491,-1.4908,-1.4926,-1.4924,-1.4963,-1.4948,-1.4948,-1.4948,-1.4948,0,-1.4027,-1.4082,-1.4171,-1.4214,-1.4277,-1.4338,-1.4398,-1.4444,-1.4506,-1.4558,-1.46,-1.4648,-1.4715,-1.477,-1.4811,-1.4876,-1.4893,-1.4917,-1.4927,-1.4914,-1.491,-1.4937,-1.4935,-1.495,-1.4949,-1.4949,-1.4949,0,-1.4027,-1.4089,-1.4169,-1.426,-1.4284,-1.4326,-1.4402,-1.4445,-1.4492,-1.4557,-1.4576,-1.4648,-1.4715,-1.4773,-1.4861,-1.4889,-1.4955,-1.4968,-1.4932,-1.4938,-1.4958,-1.4955,-1.5015,-1.5025,-1.5003,-1.5003,-1.5003,0,-1.4047,-1.4092,-1.4187,-1.4226,-1.427,-1.4331,-1.4375,-1.4435,-1.4479,-1.4562,-1.4595,-1.4665,-1.4725,-1.483,-1.4889,-1.4956,-1.497,-1.4986,-1.498,-1.4965,-1.497,-1.4967,-1.4971,-1.4986,-1.4986,-1.4986,-1.4986,0,-1.4076,-1.4105,-1.4168,-1.4241,-1.4293,-1.4353,-1.4414,-1.4443,-1.4514,-1.4561,-1.4631,-1.4677,-1.4768,-1.4837,-1.491,-1.4953,-1.4981,-1.4988,-1.4997,-1.4983,-1.496,-1.4972,-1.4933,-1.4986,-1.4986,-1.4986,-1.4986,-1.4986,-1.4087,-1.4129,-1.4202,-1.4271,-1.4323,-1.438,-1.4425,-1.4477,-1.4537,-1.4617,-1.4648,-1.4719,-1.4787,-1.4889,-1.4932,-1.4987,-1.4991,-1.5004,-1.5007,-1.5009,-1.5007,-1.4952,-1.5,-1.5,-1.5,-1.5,-1.5001,0,-1.4118,-1.4168,-1.4231,-1.4316,-1.4369,-1.4393,-1.4461,-1.4504,-1.4567,-1.4628,-1.4687,-1.4766,-1.4833,-1.4898,-1.4967,-1.4999,-1.5013,-1.5015,-1.5013,-1.5022,-1.4999,-1.4985,-1.5002,-1.5002,-1.5002,-1.5002,-1.5002,-1.5002,-1.4141,-1.4212,-1.4248,-1.4345,-1.4394,-1.4466,-1.4503,-1.4554,-1.4604,-1.4692,-1.4748,-1.4791,-1.4853,-1.4927,-1.4989,-1.5006,-1.5029,-1.5028,-1.5048,-1.5025,-1.5024,-1.5023,-1.501,-1.5032,-1.5032,-1.5066,-1.5067,-1.5067]}]]